Overview Statistics Trail Chart Weather Telemetry Raw packets
 

This is the latest recevied weather packets stored in our database for station/object KC4JIR. If no packets are shown the sender has not sent any weather packets the latest 10 day(s).

<< 37 38 39 40 41 42 43 >>
Time Temp. Humidity Pressure Rain* Wind** Luminosity Snow
1788357350 27.78° C 86% 1016.7 hPa 0 mm - 85 W/m² -
1788357045 27.78° C 88% 1017 hPa 0 mm - 70 W/m² -
1788356740 27.22° C 88% 1016.9 hPa 0 mm - 62 W/m² -
1788356435 27.22° C 90% 1017.1 hPa 0 mm - 58 W/m² -
1788356130 27.22° C 91% 1017.1 hPa 0 mm - 57 W/m² -
1788355830 27.22° C 91% 1016.9 hPa 0 mm - 55 W/m² -
1788355525 27.22° C 91% 1017.2 hPa 0 mm - 54 W/m² -
1788355220 26.67° C 92% 1017.1 hPa 0 mm - 55 W/m² -
1788354917 26.67° C 92% 1017.2 hPa 0 mm - 54 W/m² -
1788354632 26.67° C 93% 1017 hPa 0 mm - 53 W/m² -
1788354312 26.67° C 93% 1017.2 hPa 0 mm - 52 W/m² -
1788354008 26.11° C 94% 1017.1 hPa 0 mm - 54 W/m² -
1788353703 25.56° C 96% 1017.2 hPa 0 mm - 57 W/m² -
1788353399 25° C 97% 1017.1 hPa 0 mm - 60 W/m² -
1788353095 25° C 99% 1017 hPa 0 mm - 63 W/m² -
1788352789 24.44° C 99% 1017.1 hPa 0 mm - 65 W/m² -
1788352486 24.44° C 99% 1017 hPa 0 mm - 65 W/m² -
1788352184 23.89° C 99% 1017 hPa 0 mm - 62 W/m² -
1788351880 23.89° C 99% 1016.9 hPa 0 mm - 59 W/m² -
1788351576 23.89° C 99% 1017 hPa 0 mm - 52 W/m² -
1788351276 23.89° C 99% 1017 hPa 0 mm - 48 W/m² -
1788350970 23.33° C 99% 1016.9 hPa 0 mm - 42 W/m² -
1788350667 23.33° C 99% 1016.9 hPa 0 mm - 37 W/m² -
1788350366 23.33° C 99% 1017.1 hPa 0 mm - 29 W/m² -
1788350062 23.33° C 99% 1017 hPa 0 mm - 22 W/m² -

* Rain latest hour (hover to see other rain measurements)
** Current wind speed in m/s (hover to see current wind gust speed)